| time (UTC) | temp C | wind direction | speed KPH | gust KPH | rain 1hr cm | rain 24hr cm | rain mn cm | humidity % | barometer mb |
| 20260510104543 | 10 | 46 | 4.8 | 14.5 | 0.00 | 0.61 | 0.08 | 92 | 1011.4 |
| 20260510104041 | 10 | 60 | 8.0 | 14.5 | 0.00 | 0.61 | 0.08 | 93 | 1011.2 |
| 20260510103543 | 10 | 44 | 4.8 | 14.5 | 0.00 | 0.61 | 0.08 | 93 | 1011.2 |
| 20260510103043 | 10 | 348 | 6.4 | 14.5 | 0.00 | 0.61 | 0.08 | 94 | 1011.1 |
| 20260510102537 | 10 | 40 | 4.8 | 9.7 | 0.00 | 0.61 | 0.08 | 94 | 1010.8 |
| 20260510102036 | 10 | 44 | 6.4 | 16.1 | 0.00 | 0.61 | 0.08 | 94 | 1010.7 |
| 20260510101536 | 10 | 46 | 6.4 | 16.1 | 0.00 | 0.61 | 0.08 | 94 | 1010.6 |
| 20260510101034 | 10 | 53 | 8.0 | 16.1 | 0.00 | 0.61 | 0.08 | 94 | 1010.6 |
| 20260510100535 | 10 | 59 | 8.0 | 14.5 | 0.00 | 0.61 | 0.08 | 94 | 1010.5 |
| 20260510100036 | 10 | 38 | 4.8 | 14.5 | 0.00 | 0.61 | 0.08 | 94 | 1010.5 |
| 20260510095532 | 10 | 37 | 6.4 | 16.1 | 0.00 | 0.64 | 0.08 | 94 | 1010.3 |
| 20260510095031 | 10 | 34 | 6.4 | 16.1 | 0.00 | 0.64 | 0.08 | 94 | 1010.2 |
| 20260510094539 | 10 | 40 | 9.7 | 16.1 | 0.00 | 0.64 | 0.08 | 94 | 1010.2 |
| 20260510094029 | 10 | 19 | 6.4 | 14.5 | 0.00 | 0.64 | 0.08 | 94 | 1010.2 |
| 20260510093528 | 10 | 15 | 6.4 | 16.1 | 0.00 | 0.64 | 0.08 | 93 | 1010.1 |
| 20260510093028 | 10 | 23 | 8.0 | 16.1 | 0.00 | 0.64 | 0.08 | 93 | 1010.0 |
| 20260510092527 | 10 | 17 | 9.7 | 16.1 | 0.00 | 0.64 | 0.08 | 93 | 1009.9 |
| 20260510092025 | 11 | 40 | 9.7 | 14.5 | 0.00 | 0.64 | 0.08 | 93 | 1009.8 |
| 20260510091526 | 11 | 38 | 3.2 | 9.7 | 0.00 | 0.64 | 0.08 | 92 | 1009.7 |
| 20260510091023 | 11 | 304 | 4.8 | 9.7 | 0.00 | 0.64 | 0.08 | 92 | 1009.7 |
| 20260510090522 | 11 | 351 | 3.2 | 8.0 | 0.03 | 0.64 | 0.08 | 92 | 1009.6 |
| 20260510090022 | 11 | 110 | 1.6 | 6.4 | 0.03 | 0.64 | 0.08 | 92 | 1009.6 |
| 20260510085521 | 11 | 338 | 1.6 | 6.4 | 0.03 | 0.66 | 0.08 | 92 | 1009.6 |
| 20260510085020 | 11 | 355 | 0.0 | 6.4 | 0.03 | 0.66 | 0.08 | 92 | 1009.4 |
| 20260510084521 | 11 | 317 | 0.0 | 6.4 | 0.03 | 0.66 | 0.08 | 92 | 1009.3 |
| 20260510084019 | 11 | 296 | 1.6 | 4.8 | 0.03 | 0.66 | 0.08 | 92 | 1009.2 |
| 20260510083519 | 11 | 296 | 1.6 | 4.8 | 0.03 | 0.66 | 0.08 | 92 | 1009.2 |
| 20260510083019 | 11 | 296 | 0.0 | 4.8 | 0.03 | 0.66 | 0.08 | 92 | 1009.0 |
| 20260510082518 | 11 | 296 | 0.0 | 4.8 | 0.03 | 0.66 | 0.08 | 92 | 1009.1 |
| 20260510082018 | 11 | 296 | 0.0 | 1.6 | 0.03 | 0.66 | 0.08 | 92 | 1009.1 |
| 20260510081532 | 11 | 296 | 0.0 | 6.4 | 0.03 | 0.66 | 0.08 | 92 | 1009.1 |
| 20260510081019 | 11 | 296 | 1.6 | 6.4 | 0.03 | 0.66 | 0.08 | 93 | 1008.9 |
| 20260510080517 | 11 | 281 | 3.2 | 6.4 | 0.00 | 0.64 | 0.05 | 93 | 1008.9 |
| 20260510080016 | 11 | 281 | 1.6 | 6.4 | 0.00 | 0.64 | 0.05 | 93 | 1008.9 |
| 20260510075519 | 11 | 275 | 3.2 | 6.4 | 0.00 | 0.64 | 0.05 | 93 | 1008.9 |
| 20260510075016 | 11 | 317 | 0.0 | 4.8 | 0.00 | 0.64 | 0.05 | 93 | 1009.0 |
| 20260510074516 | 11 | 284 | 0.0 | 4.8 | 0.00 | 0.64 | 0.05 | 93 | 1008.9 |
| 20260510074017 | 11 | 279 | 1.6 | 4.8 | 0.00 | 0.64 | 0.05 | 92 | 1008.8 |
| 20260510073515 | 11 | 275 | 0.0 | 8.0 | 0.00 | 0.64 | 0.05 | 92 | 1008.9 |
| 20260510073016 | 11 | 299 | 1.6 | 11.3 | 0.00 | 0.64 | 0.05 | 92 | 1008.8 |
| 20260510072515 | 11 | 342 | 4.8 | 11.3 | 0.00 | 0.64 | 0.05 | 92 | 1008.9 |
| 20260510072015 | 11 | 238 | 3.2 | 6.4 | 0.00 | 0.64 | 0.05 | 92 | 1008.8 |
| 20260510071514 | 11 | 238 | 1.6 | 8.0 | 0.00 | 0.64 | 0.05 | 92 | 1008.6 |
| 20260510071013 | 11 | 238 | 4.8 | 8.0 | 0.00 | 0.64 | 0.05 | 92 | 1008.7 |
| 20260510070515 | 11 | 238 | 3.2 | 6.4 | 0.00 | 0.64 | 0.05 | 92 | 1008.5 |
| 20260510070013 | 11 | 238 | 3.2 | 8.0 | 0.00 | 0.64 | 0.05 | 92 | 1008.4 |
| 20260510065512 | 11 | 238 | 3.2 | 8.0 | 0.00 | 0.64 | 0.05 | 92 | 1008.4 |
| 20260510065012 | 11 | 202 | 4.8 | 11.3 | 0.00 | 0.64 | 0.05 | 93 | 1008.3 |
| 20260510064513 | 11 | 236 | 4.8 | 8.0 | 0.00 | 0.64 | 0.05 | 93 | 1008.4 |
| 20260510064010 | 11 | 230 | 3.2 | 9.7 | 0.00 | 0.64 | 0.05 | 93 | 1008.4 |
| 20260510063514 | 11 | 229 | 1.6 | 9.7 | 0.00 | 0.64 | 0.05 | 93 | 1008.4 |
| 20260510063013 | 11 | 269 | 3.2 | 6.4 | 0.00 | 0.64 | 0.05 | 93 | 1008.5 |
| 20260510062508 | 12 | 263 | 3.2 | 11.3 | 0.00 | 0.64 | 0.05 | 93 | 1008.4 |
| 20260510062011 | 12 | 241 | 1.6 | 11.3 | 0.00 | 0.64 | 0.05 | 94 | 1008.4 |
| 20260510061512 | 12 | 245 | 3.2 | 8.0 | 0.00 | 0.64 | 0.05 | 93 | 1008.3 |
| 20260510061007 | 12 | 244 | 4.8 | 8.0 | 0.03 | 0.64 | 0.05 | 93 | 1008.4 |
| 20260510060513 | 12 | 200 | 3.2 | 6.4 | 0.03 | 0.64 | 0.05 | 93 | 1008.3 |
| 20260510060007 | 12 | 248 | 3.2 | 6.4 | 0.05 | 0.64 | 0.05 | 93 | 1008.3 |
| 20260510055506 | 12 | 238 | 3.2 | 8.0 | 0.05 | 0.64 | 0.05 | 92 | 1008.3 |
| 20260510055007 | 12 | 254 | 3.2 | 6.4 | 0.05 | 0.64 | 0.05 | 92 | 1008.4 |
| 20260510054506 | 12 | 254 | 0.0 | 4.8 | 0.05 | 0.64 | 0.05 | 92 | 1008.3 |
| 20260510054005 | 12 | 254 | 1.6 | 8.0 | 0.05 | 0.64 | 0.05 | 92 | 1008.5 |
| 20260510053507 | 12 | 207 | 3.2 | 8.0 | 0.05 | 0.64 | 0.05 | 92 | 1008.6 |
| 20260510053005 | 12 | 213 | 3.2 | 8.0 | 0.05 | 0.64 | 0.05 | 92 | 1008.7 |
| 20260510052504 | 12 | 355 | 3.2 | 12.9 | 0.05 | 0.64 | 0.05 | 92 | 1008.9 |
| 20260510052004 | 12 | 277 | 4.8 | 17.7 | 0.05 | 0.64 | 0.05 | 93 | 1008.8 |
| 20260510051514 | 12 | 278 | 6.4 | 17.7 | 0.05 | 0.64 | 0.05 | 93 | 1009.1 |
| 20260510051002 | 12 | 242 | 8.0 | 19.3 | 0.03 | 0.61 | 0.03 | 94 | 1009.3 |
| 20260510050502 | 12 | 238 | 6.4 | 20.9 | 0.00 | 0.58 | 0.00 | 95 | 1009.3 |
| 20260510050000 | 12 | 296 | 12.9 | 20.9 | 0.00 | 0.58 | 0.00 | 95 | 1009.5 |
| 20260510045559 | 12 | 5 | 3.2 | 8.0 | 0.00 | 0.61 | 0.00 | 95 | 1009.5 |
| 20260510045058 | 12 | 204 | 1.6 | 4.8 | 0.00 | 0.61 | 0.00 | 95 | 1008.6 |
| 20260510044557 | 12 | 204 | 1.6 | 6.4 | 0.00 | 0.61 | 0.00 | 94 | 1008.2 |
| 20260510044056 | 12 | 204 | 3.2 | 6.4 | 0.00 | 0.61 | 0.00 | 95 | 1008.2 |
| 20260510043556 | 12 | 204 | 3.2 | 4.8 | 0.00 | 0.61 | 0.00 | 95 | 1008.1 |
| 20260510043056 | 12 | 205 | 3.2 | 6.4 | 0.00 | 0.61 | 0.00 | 95 | 1008.1 |
| 20260510042558 | 12 | 204 | 3.2 | 8.0 | 0.00 | 0.61 | 0.00 | 95 | 1008.1 |
| 20260510042057 | 12 | 204 | 4.8 | 8.0 | 0.00 | 0.61 | 0.00 | 95 | 1008.1 |
| 20260510041627 | 12 | 240 | 3.2 | 6.4 | 0.00 | 0.61 | 0.00 | 94 | 1008.2 |
| 20260510041053 | 12 | 9 | 1.6 | 3.2 | 0.03 | 0.61 | 0.00 | 94 | 1008.2 |
| 20260510040554 | 12 | 9 | 0.0 | 0.0 | 0.03 | 0.61 | 0.00 | 94 | 1008.2 |
| 20260510040051 | 12 | 9 | 0.0 | 8.0 | 0.03 | 0.61 | 0.00 | 94 | 1008.2 |
| 20260510035552 | 12 | 9 | 4.8 | 8.0 | 0.03 | 0.61 | 0.61 | 94 | 1008.3 |
| 20260510035051 | 12 | 9 | 1.6 | 9.7 | 0.03 | 0.61 | 0.61 | 94 | 1008.1 |
| 20260510034557 | 12 | 9 | 3.2 | 9.7 | 0.03 | 0.61 | 0.61 | 94 | 1008.3 |
| 20260510034055 | 12 | 35 | 0.0 | 6.4 | 0.03 | 0.61 | 0.61 | 94 | 1008.0 |
| 20260510033551 | 12 | 35 | 0.0 | 14.5 | 0.03 | 0.61 | 0.61 | 94 | 1008.0 |
| 20260510033102 | 12 | 48 | 8.0 | 14.5 | 0.03 | 0.61 | 0.61 | 94 | 1008.1 |
| 20260510032550 | 12 | 28 | 8.0 | 12.9 | 0.03 | 0.61 | 0.61 | 94 | 1007.9 |
| 20260510032052 | 12 | 5 | 6.4 | 9.7 | 0.03 | 0.61 | 0.61 | 94 | 1007.7 |
| 20260510031555 | 12 | 304 | 3.2 | 4.8 | 0.03 | 0.61 | 0.61 | 94 | 1007.6 |
| 20260510031053 | 12 | 205 | 0.0 | 3.2 | 0.00 | 0.58 | 0.58 | 94 | 1007.8 |
| 20260510030549 | 12 | 205 | 0.0 | 1.6 | 0.00 | 0.58 | 0.58 | 94 | 1007.5 |
| 20260510030049 | 12 | 205 | 0.0 | 0.0 | 0.00 | 0.58 | 0.58 | 94 | 1007.5 |
| 20260510025549 | 12 | 205 | 0.0 | 1.6 | 0.00 | 0.61 | 0.58 | 94 | 1007.3 |
| 20260510025049 | 12 | 205 | 0.0 | 3.2 | 0.00 | 0.61 | 0.58 | 94 | 1007.5 |
| 20260510024606 | 12 | 205 | 0.0 | 3.2 | 0.00 | 0.61 | 0.58 | 94 | 1007.7 |
| 20260510024048 | 12 | 205 | 0.0 | 4.8 | 0.00 | 0.61 | 0.58 | 94 | 1007.5 |
| 20260510023549 | 12 | 205 | 0.0 | 4.8 | 0.00 | 0.61 | 0.58 | 94 | 1007.4 |
| 20260510023052 | 12 | 205 | 0.0 | 3.2 | 0.00 | 0.61 | 0.58 | 93 | 1007.7 |
| 20260510022548 | 12 | 205 | 1.6 | 3.2 | 0.00 | 0.61 | 0.58 | 93 | 1007.9 |
| 20260510022047 | 12 | 205 | 0.0 | 4.8 | 0.00 | 0.61 | 0.58 | 93 | 1007.8 |
| 20260510021548 | 12 | 205 | 0.0 | 4.8 | 0.05 | 0.61 | 0.58 | 93 | 1007.6 |
| 20260510021047 | 12 | 205 | 1.6 | 6.4 | 0.15 | 0.61 | 0.58 | 92 | 1007.4 |
| 20260510020548 | 12 | 205 | 0.0 | 8.0 | 0.30 | 0.61 | 0.58 | 92 | 1007.6 |
| 20260510020048 | 12 | 269 | 1.6 | 4.8 | 0.38 | 0.61 | 0.58 | 92 | 1007.8 |
| 20260510015548 | 12 | 269 | 1.6 | 6.4 | 0.43 | 0.61 | 0.58 | 91 | 1007.9 |
| 20260510015047 | 13 | 269 | 3.2 | 6.4 | 0.43 | 0.61 | 0.58 | 91 | 1007.6 |
| 20260510014601 | 13 | 269 | 1.6 | 4.8 | 0.43 | 0.61 | 0.58 | 91 | 1007.7 |
| 20260510014047 | 13 | 269 | 0.0 | 4.8 | 0.43 | 0.61 | 0.58 | 90 | 1007.7 |
| 20260510013547 | 13 | 269 | 1.6 | 4.8 | 0.43 | 0.61 | 0.58 | 90 | 1007.6 |
| 20260510013100 | 13 | 269 | 1.6 | 9.7 | 0.43 | 0.61 | 0.58 | 90 | 1007.6 |
| 20260510012550 | 13 | 343 | 1.6 | 6.4 | 0.43 | 0.61 | 0.58 | 89 | 1007.5 |
| 20260510012046 | 13 | 321 | 1.6 | 11.3 | 0.43 | 0.61 | 0.58 | 88 | 1007.6 |
| 20260510011546 | 13 | 204 | 1.6 | 12.9 | 0.38 | 0.56 | 0.53 | 86 | 1007.7 |
| 20260510011048 | 13 | 232 | 3.2 | 17.7 | 0.28 | 0.46 | 0.43 | 85 | 1007.7 |
| 20260510010544 | 14 | 16 | 6.4 | 24.1 | 0.13 | 0.30 | 0.28 | 82 | 1007.6 |
| 20260510010045 | 15 | 302 | 4.8 | 27.4 | 0.05 | 0.23 | 0.20 | 78 | 1007.2 |
| 20260510005544 | 16 | 355 | 12.9 | 33.8 | 0.00 | 0.20 | 0.15 | 72 | 1006.9 |
| 20260510005047 | 17 | 41 | 19.3 | 33.8 | 0.00 | 0.20 | 0.15 | 65 | 1006.4 |
| 20260510004548 | 17 | 327 | 8.0 | 17.7 | 0.00 | 0.20 | 0.15 | 61 | 1005.5 |
| 20260510004043 | 17 | 229 | 6.4 | 17.7 | 0.00 | 0.20 | 0.15 | 61 | 1005.1 |
| 20260510003544 | 17 | 264 | 3.2 | 22.5 | 0.00 | 0.20 | 0.15 | 61 | 1005.1 |
| 20260510003044 | 18 | 227 | 6.4 | 22.5 | 0.00 | 0.20 | 0.15 | 60 | 1005.2 |
| 20260510002543 | 18 | 196 | 8.0 | 19.3 | 0.00 | 0.20 | 0.15 | 60 | 1005.3 |
| 20260510002042 | 18 | 227 | 8.0 | 20.9 | 0.00 | 0.20 | 0.15 | 61 | 1005.4 |
| 20260510001542 | 18 | 221 | 9.7 | 24.1 | 0.00 | 0.20 | 0.15 | 60 | 1005.4 |
| 20260510001042 | 18 | 232 | 9.7 | 24.1 | 0.00 | 0.20 | 0.15 | 60 | 1005.4 |
| 20260510000543 | 18 | 221 | 12.9 | 22.5 | 0.00 | 0.20 | 0.15 | 60 | 1005.4 |
| 20260510000042 | 18 | 207 | 9.7 | 22.5 | 0.00 | 0.20 | 0.15 | 60 | 1005.3 |
| 20260509235541 | 18 | 259 | 9.7 | 22.5 | 0.00 | 0.20 | 0.15 | 60 | 1005.2 |
| 20260509235045 | 18 | 248 | 11.3 | 27.4 | 0.00 | 0.20 | 0.15 | 60 | 1005.2 |
| 20260509234541 | 18 | 250 | 14.5 | 30.6 | 0.00 | 0.20 | 0.15 | 60 | 1005.2 |
| 20260509234041 | 18 | 296 | 9.7 | 33.8 | 0.00 | 0.20 | 0.15 | 60 | 1005.1 |
| 20260509233542 | 18 | 251 | 16.1 | 33.8 | 0.00 | 0.20 | 0.15 | 60 | 1005.1 |
| 20260509233043 | 18 | 205 | 16.1 | 29.0 | 0.00 | 0.20 | 0.15 | 60 | 1005.0 |
| 20260509232540 | 18 | 254 | 9.7 | 30.6 | 0.00 | 0.20 | 0.15 | 59 | 1005.1 |
| 20260509232040 | 18 | 302 | 6.4 | 30.6 | 0.00 | 0.20 | 0.15 | 59 | 1005.0 |
| 20260509231539 | 19 | 226 | 9.7 | 33.8 | 0.00 | 0.20 | 0.15 | 59 | 1005.0 |
| 20260509231041 | 19 | 228 | 14.5 | 33.8 | 0.00 | 0.20 | 0.15 | 58 | 1005.0 |
| 20260509230538 | 19 | 220 | 11.3 | 24.1 | 0.00 | 0.20 | 0.15 | 58 | 1005.0 |
| 20260509230039 | 19 | 173 | 12.9 | 30.6 | 0.00 | 0.20 | 0.15 | 58 | 1004.9 |
| 20260509225541 | 19 | 252 | 16.1 | 30.6 | 0.00 | 0.20 | 0.15 | 57 | 1004.9 |
| 20260509225037 | 19 | 254 | 8.0 | 29.0 | 0.00 | 0.20 | 0.15 | 59 | 1004.9 |
| 20260509224538 | 19 | 205 | 16.1 | 30.6 | 0.00 | 0.20 | 0.15 | 57 | 1004.9 |
| 20260509224038 | 19 | 212 | 19.3 | 35.4 | 0.00 | 0.20 | 0.15 | 57 | 1004.9 |
| 20260509223537 | 19 | 279 | 12.9 | 35.4 | 0.00 | 0.20 | 0.15 | 58 | 1004.9 |
| 20260509223043 | 19 | 223 | 12.9 | 30.6 | 0.00 | 0.20 | 0.15 | 59 | 1005.0 |
| 20260509222540 | 19 | 211 | 12.9 | 27.4 | 0.00 | 0.20 | 0.15 | 59 | 1005.1 |
| 20260509222036 | 19 | 242 | 16.1 | 30.6 | 0.00 | 0.20 | 0.15 | 58 | 1005.0 |
| 20260509221536 | 19 | 238 | 17.7 | 32.2 | 0.00 | 0.20 | 0.15 | 59 | 1005.0 |
| 20260509221034 | 19 | 210 | 12.9 | 38.6 | 0.00 | 0.20 | 0.15 | 59 | 1005.0 |
| 20260509220534 | 19 | 236 | 16.1 | 38.6 | 0.00 | 0.20 | 0.15 | 59 | 1005.1 |
| 20260509220034 | 19 | 245 | 12.9 | 27.4 | 0.00 | 0.20 | 0.15 | 59 | 1005.0 |
| 20260509215535 | 19 | 230 | 14.5 | 27.4 | 0.00 | 0.20 | 0.15 | 59 | 1005.0 |
| 20260509215033 | 19 | 254 | 11.3 | 22.5 | 0.00 | 0.20 | 0.15 | 59 | 1005.1 |
| 20260509214532 | 19 | 202 | 8.0 | 25.7 | 0.00 | 0.20 | 0.15 | 60 | 1005.2 |
| 20260509214031 | 19 | 234 | 14.5 | 30.6 | 0.00 | 0.20 | 0.15 | 59 | 1005.2 |
| 20260509213531 | 19 | 241 | 17.7 | 30.6 | 0.00 | 0.20 | 0.15 | 58 | 1005.2 |
| 20260509213031 | 19 | 234 | 12.9 | 25.7 | 0.00 | 0.20 | 0.15 | 59 | 1005.2 |
| 20260509212529 | 19 | 259 | 12.9 | 29.0 | 0.00 | 0.20 | 0.15 | 58 | 1005.2 |
| 20260509212028 | 19 | 266 | 12.9 | 32.2 | 0.00 | 0.20 | 0.15 | 59 | 1005.3 |
| 20260509211530 | 19 | 215 | 16.1 | 32.2 | 0.00 | 0.20 | 0.15 | 59 | 1005.5 |
| 20260509211028 | 19 | 255 | 16.1 | 27.4 | 0.00 | 0.20 | 0.15 | 59 | 1005.6 |
| 20260509210528 | 19 | 262 | 11.3 | 32.2 | 0.00 | 0.20 | 0.15 | 61 | 1005.6 |
| 20260509210036 | 18 | 219 | 12.9 | 29.0 | 0.00 | 0.20 | 0.15 | 60 | 1005.7 |
| 20260509205527 | 19 | 205 | 14.5 | 29.0 | 0.00 | 0.20 | 0.15 | 58 | 1005.8 |
| 20260509205030 | 19 | 266 | 8.0 | 25.7 | 0.00 | 0.20 | 0.15 | 61 | 1005.7 |
| 20260509204526 | 19 | 253 | 8.0 | 32.2 | 0.00 | 0.20 | 0.15 | 61 | 1005.6 |
| 20260509204026 | 19 | 237 | 12.9 | 32.2 | 0.00 | 0.20 | 0.15 | 60 | 1005.6 |
| 20260509203525 | 19 | 228 | 9.7 | 30.6 | 0.00 | 0.20 | 0.15 | 62 | 1005.6 |
| 20260509203025 | 18 | 200 | 9.7 | 29.0 | 0.00 | 0.20 | 0.15 | 62 | 1005.7 |
| 20260509202524 | 18 | 213 | 11.3 | 32.2 | 0.00 | 0.20 | 0.15 | 61 | 1005.8 |
| 20260509202022 | 19 | 201 | 12.9 | 24.1 | 0.00 | 0.20 | 0.15 | 62 | 1005.8 |
| 20260509201526 | 18 | 266 | 11.3 | 38.6 | 0.00 | 0.20 | 0.15 | 60 | 1005.9 |
| 20260509201024 | 18 | 275 | 19.3 | 38.6 | 0.00 | 0.20 | 0.15 | 59 | 1005.9 |
| 20260509200620 | 18 | 244 | 17.7 | 29.0 | 0.00 | 0.20 | 0.15 | 60 | 1006.0 |
| 20260509200019 | 18 | 264 | 6.4 | 24.1 | 0.00 | 0.20 | 0.15 | 62 | 1006.1 |
| 20260509195518 | 18 | 216 | 6.4 | 27.4 | 0.00 | 0.20 | 0.15 | 62 | 1006.2 |
| 20260509195017 | 18 | 205 | 12.9 | 27.4 | 0.00 | 0.20 | 0.15 | 64 | 1006.4 |
| 20260509194516 | 18 | 241 | 16.1 | 27.4 | 0.00 | 0.20 | 0.15 | 63 | 1006.4 |
| 20260509194016 | 18 | 274 | 14.5 | 30.6 | 0.00 | 0.20 | 0.15 | 63 | 1006.5 |
| 20260509193515 | 18 | 217 | 16.1 | 30.6 | 0.00 | 0.20 | 0.15 | 62 | 1006.5 |
| 20260509193014 | 18 | 247 | 14.5 | 35.4 | 0.00 | 0.20 | 0.15 | 63 | 1006.6 |
| 20260509192512 | 18 | 230 | 17.7 | 35.4 | 0.00 | 0.20 | 0.15 | 63 | 1006.6 |
| 20260509192011 | 18 | 180 | 14.5 | 27.4 | 0.00 | 0.20 | 0.15 | 65 | 1006.6 |
| 20260509191510 | 18 | 223 | 12.9 | 25.7 | 0.00 | 0.20 | 0.15 | 66 | 1006.7 |
| 20260509191010 | 18 | 251 | 16.1 | 25.7 | 0.00 | 0.20 | 0.15 | 67 | 1006.8 |
| 20260509190509 | 18 | 249 | 12.9 | 24.1 | 0.00 | 0.20 | 0.15 | 67 | 1006.8 |
| 20260509190009 | 18 | 253 | 12.9 | 24.1 | 0.00 | 0.20 | 0.15 | 65 | 1006.9 |
| 20260509185508 | 17 | 236 | 12.9 | 32.2 | 0.00 | 0.20 | 0.15 | 66 | 1006.7 |
| 20260509185007 | 18 | 261 | 9.7 | 32.2 | 0.00 | 0.20 | 0.15 | 69 | 1006.9 |
| 20260509184514 | 18 | 257 | 14.5 | 27.4 | 0.00 | 0.20 | 0.15 | 69 | 1007.0 |
| 20260509184005 | 17 | 248 | 8.0 | 25.7 | 0.00 | 0.20 | 0.15 | 70 | 1007.0 |
| 20260509183504 | 17 | 231 | 12.9 | 25.7 | 0.00 | 0.20 | 0.15 | 69 | 1007.1 |
| 20260509183004 | 17 | 232 | 11.3 | 29.0 | 0.00 | 0.20 | 0.15 | 71 | 1007.1 |
| 20260509182506 | 17 | 226 | 12.9 | 29.0 | 0.00 | 0.20 | 0.15 | 72 | 1007.1 |
| 20260509182002 | 17 | 178 | 11.3 | 29.0 | 0.00 | 0.20 | 0.15 | 73 | 1007.1 |
| 20260509181600 | 17 | 239 | 16.1 | 29.0 | 0.00 | 0.20 | 0.15 | 71 | 1007.0 |
| 20260509181059 | 17 | 277 | 12.9 | 37.0 | 0.00 | 0.20 | 0.15 | 73 | 1007.1 |
| 20260509180559 | 17 | 239 | 17.7 | 37.0 | 0.00 | 0.20 | 0.15 | 73 | 1007.2 |
| 20260509180058 | 17 | 260 | 14.5 | 29.0 | 0.00 | 0.20 | 0.15 | 74 | 1007.1 |
| 20260509175558 | 17 | 215 | 16.1 | 29.0 | 0.00 | 0.20 | 0.15 | 75 | 1007.1 |
| 20260509175056 | 16 | 258 | 14.5 | 32.2 | 0.00 | 0.20 | 0.15 | 75 | 1007.1 |
| 20260509174555 | 16 | 249 | 16.1 | 35.4 | 0.00 | 0.20 | 0.15 | 75 | 1007.1 |
| 20260509174054 | 16 | 236 | 12.9 | 22.5 | 0.00 | 0.20 | 0.15 | 79 | 1007.1 |
| 20260509173552 | 16 | 185 | 9.7 | 20.9 | 0.00 | 0.20 | 0.15 | 78 | 1007.2 |
| 20260509173116 | 16 | 192 | 6.4 | 27.4 | 0.00 | 0.20 | 0.15 | 80 | 1007.5 |
| 20260509172551 | 16 | 181 | 12.9 | 22.5 | 0.00 | 0.20 | 0.15 | 80 | 1007.4 |
| 20260509172049 | 16 | 223 | 9.7 | 16.1 | 0.00 | 0.20 | 0.15 | 81 | 1007.4 |
| 20260509171549 | 15 | 240 | 6.4 | 19.3 | 0.00 | 0.20 | 0.15 | 82 | 1007.6 |
| 20260509171047 | 15 | 249 | 6.4 | 20.9 | 0.00 | 0.20 | 0.15 | 82 | 1007.5 |
| 20260509170551 | 15 | 219 | 9.7 | 22.5 | 0.00 | 0.20 | 0.15 | 83 | 1007.5 |
| 20260509170055 | 15 | 290 | 4.8 | 27.4 | 0.00 | 0.20 | 0.15 | 86 | 1007.6 |
| 20260509165545 | 15 | 182 | 6.4 | 27.4 | 0.00 | 0.20 | 0.15 | 84 | 1007.6 |
| 20260509165044 | 15 | 198 | 9.7 | 22.5 | 0.00 | 0.20 | 0.15 | 85 | 1007.6 |
| 20260509164545 | 14 | 217 | 11.3 | 22.5 | 0.00 | 0.20 | 0.15 | 84 | 1007.7 |
| 20260509164045 | 15 | 178 | 8.0 | 19.3 | 0.00 | 0.20 | 0.15 | 84 | 1007.5 |
| 20260509163543 | 15 | 199 | 9.7 | 19.3 | 0.00 | 0.20 | 0.15 | 83 | 1007.5 |
| 20260509163045 | 15 | 232 | 9.7 | 16.1 | 0.00 | 0.20 | 0.15 | 85 | 1007.4 |
| 20260509162542 | 15 | 206 | 4.8 | 16.1 | 0.00 | 0.20 | 0.15 | 86 | 1007.4 |
| 20260509162039 | 15 | 251 | 3.2 | 19.3 | 0.00 | 0.20 | 0.15 | 87 | 1007.5 |
| 20260509161542 | 14 | 248 | 6.4 | 17.7 | 0.00 | 0.20 | 0.15 | 87 | 1007.5 |
| 20260509161040 | 14 | 241 | 9.7 | 19.3 | 0.00 | 0.20 | 0.15 | 87 | 1007.5 |
| 20260509160537 | 14 | 208 | 4.8 | 19.3 | 0.00 | 0.20 | 0.15 | 87 | 1007.5 |
| 20260509160037 | 13 | 227 | 8.0 | 19.3 | 0.00 | 0.20 | 0.15 | 86 | 1007.5 |
| 20260509155535 | 13 | 267 | 8.0 | 17.7 | 0.00 | 0.20 | 0.15 | 87 | 1007.5 |
| 20260509155034 | 13 | 255 | 11.3 | 24.1 | 0.00 | 0.20 | 0.15 | 87 | 1007.5 |
| 20260509154534 | 13 | 263 | 14.5 | 24.1 | 0.00 | 0.20 | 0.15 | 86 | 1007.4 |
| 20260509154035 | 13 | 260 | 12.9 | 22.5 | 0.00 | 0.20 | 0.15 | 87 | 1007.3 |
| 20260509153533 | 13 | 257 | 11.3 | 22.5 | 0.00 | 0.20 | 0.15 | 88 | 1007.3 |
| 20260509153035 | 13 | 270 | 11.3 | 22.5 | 0.00 | 0.20 | 0.15 | 89 | 1007.2 |
| 20260509152531 | 13 | 260 | 9.7 | 20.9 | 0.00 | 0.20 | 0.15 | 90 | 1007.2 |
| 20260509152030 | 13 | 257 | 9.7 | 17.7 | 0.00 | 0.20 | 0.15 | 92 | 1007.3 |
| 20260509151528 | 12 | 244 | 8.0 | 25.7 | 0.00 | 0.20 | 0.15 | 92 | 1007.2 |
| 20260509151032 | 12 | 271 | 8.0 | 25.7 | 0.00 | 0.20 | 0.15 | 93 | 1007.2 |
| 20260509150526 | 12 | 280 | 6.4 | 16.1 | 0.00 | 0.20 | 0.15 | 93 | 1007.1 |
| 20260509150026 | 12 | 213 | 6.4 | 16.1 | 0.00 | 0.20 | 0.15 | 93 | 1007.2 |
| 20260509145526 | 12 | 246 | 8.0 | 22.5 | 0.00 | 0.20 | 0.15 | 94 | 1007.2 |
| 20260509145026 | 12 | 239 | 9.7 | 22.5 | 0.00 | 0.20 | 0.15 | 94 | 1007.2 |
| 20260509144525 | 12 | 194 | 6.4 | 22.5 | 0.00 | 0.20 | 0.15 | 95 | 1007.1 |
| 20260509144024 | 12 | 232 | 8.0 | 16.1 | 0.00 | 0.20 | 0.15 | 96 | 1007.2 |
| 20260509143529 | 12 | 252 | 9.7 | 16.1 | 0.00 | 0.20 | 0.15 | 96 | 1007.2 |
| 20260509143021 | 11 | 230 | 4.8 | 12.9 | 0.00 | 0.20 | 0.15 | 96 | 1007.2 |
| 20260509142519 | 11 | 234 | 6.4 | 17.7 | 0.00 | 0.20 | 0.15 | 96 | 1007.3 |
| 20260509142019 | 11 | 223 | 4.8 | 17.7 | 0.00 | 0.20 | 0.15 | 96 | 1007.4 |
| 20260509141519 | 11 | 237 | 4.8 | 17.7 | 0.00 | 0.20 | 0.15 | 96 | 1007.4 |
| 20260509141019 | 11 | 240 | 11.3 | 17.7 | 0.00 | 0.20 | 0.15 | 96 | 1007.4 |
| 20260509140519 | 11 | 246 | 9.7 | 16.1 | 0.00 | 0.20 | 0.15 | 96 | 1007.3 |
| 20260509140018 | 11 | 227 | 3.2 | 16.1 | 0.00 | 0.20 | 0.15 | 97 | 1007.2 |
| 20260509135516 | 11 | 250 | 4.8 | 16.1 | 0.00 | 0.20 | 0.15 | 96 | 1007.2 |
| 20260509135015 | 11 | 232 | 3.2 | 9.7 | 0.00 | 0.20 | 0.15 | 96 | 1007.3 |
| 20260509134514 | 11 | 233 | 3.2 | 12.9 | 0.00 | 0.20 | 0.15 | 96 | 1007.2 |
| 20260509134013 | 11 | 246 | 3.2 | 14.5 | 0.00 | 0.20 | 0.15 | 96 | 1007.4 |
| 20260509133512 | 11 | 205 | 6.4 | 14.5 | 0.00 | 0.20 | 0.15 | 96 | 1007.5 |
| 20260509133011 | 11 | 205 | 3.2 | 14.5 | 0.00 | 0.20 | 0.15 | 96 | 1007.5 |
| 20260509132510 | 10 | 241 | 6.4 | 14.5 | 0.00 | 0.20 | 0.15 | 96 | 1007.6 |
| 20260509132007 | 10 | 248 | 4.8 | 11.3 | 0.00 | 0.20 | 0.15 | 96 | 1007.7 |
| 20260509131506 | 10 | 267 | 4.8 | 11.3 | 0.00 | 0.20 | 0.15 | 96 | 1007.6 |
| 20260509131004 | 10 | 220 | 3.2 | 17.7 | 0.00 | 0.20 | 0.15 | 96 | 1007.6 |
| 20260509130504 | 10 | 252 | 6.4 | 17.7 | 0.00 | 0.20 | 0.15 | 96 | 1007.7 |
| 20260509130009 | 10 | 228 | 4.8 | 12.9 | 0.00 | 0.20 | 0.15 | 96 | 1007.6 |
| 20260509125503 | 10 | 252 | 4.8 | 14.5 | 0.00 | 0.20 | 0.15 | 96 | 1007.7 |
| 20260509125002 | 10 | 240 | 6.4 | 14.5 | 0.00 | 0.20 | 0.15 | 96 | 1007.8 |
| 20260509124502 | 10 | 255 | 4.8 | 11.3 | 0.00 | 0.20 | 0.15 | 96 | 1007.7 |
| 20260509124003 | 10 | 289 | 3.2 | 16.1 | 0.00 | 0.20 | 0.15 | 96 | 1007.6 |
| 20260509123503 | 10 | 232 | 6.4 | 19.3 | 0.00 | 0.20 | 0.15 | 96 | 1007.6 |
| 20260509123001 | 10 | 244 | 4.8 | 14.5 | 0.00 | 0.20 | 0.15 | 96 | 1007.6 |
| 20260509122501 | 10 | 247 | 6.4 | 16.1 | 0.00 | 0.20 | 0.15 | 96 | 1007.5 |
| 20260509122103 | 10 | 230 | 6.4 | 16.1 | 0.00 | 0.20 | 0.15 | 96 | 1007.6 |
| 20260509121600 | 10 | 217 | 6.4 | 19.3 | 0.03 | 0.20 | 0.15 | 96 | 1007.7 |
| 20260509121059 | 10 | 234 | 6.4 | 19.3 | 0.03 | 0.20 | 0.15 | 96 | 1007.7 |
| 20260509120559 | 10 | 205 | 6.4 | 19.3 | 0.03 | 0.20 | 0.15 | 96 | 1007.7 |
| 20260509120058 | 10 | 257 | 6.4 | 19.3 | 0.03 | 0.20 | 0.15 | 96 | 1007.7 |
| 20260509115556 | 10 | 210 | 6.4 | 14.5 | 0.03 | 0.20 | 0.15 | 95 | 1007.8 |
| 20260509115056 | 10 | 244 | 8.0 | 16.1 | 0.05 | 0.20 | 0.15 | 95 | 1007.8 |
| 20260509114626 | 10 | 255 | 3.2 | 14.5 | 0.05 | 0.20 | 0.15 | 95 | 1007.8 |
| 20260509114055 | 10 | 227 | 4.8 | 14.5 | 0.08 | 0.20 | 0.15 | 95 | 1007.8 |
| 20260509113554 | 10 | 229 | 3.2 | 11.3 | 0.08 | 0.20 | 0.15 | 95 | 1007.7 |
| 20260509113119 | 10 | 245 | 6.4 | 11.3 | 0.08 | 0.20 | 0.15 | 95 | 1007.7 |
| 20260509112555 | 10 | 244 | 3.2 | 19.3 | 0.08 | 0.20 | 0.15 | 95 | 1007.7 |
| 20260509112053 | 10 | 221 | 8.0 | 19.3 | 0.08 | 0.20 | 0.15 | 95 | 1007.8 |
| 20260509111552 | 10 | 186 | 4.8 | 11.3 | 0.05 | 0.18 | 0.13 | 95 | 1007.7 |
| 20260509111052 | 10 | 233 | 4.8 | 16.1 | 0.05 | 0.18 | 0.13 | 95 | 1007.6 |
| 20260509110551 | 10 | 211 | 4.8 | 16.1 | 0.05 | 0.18 | 0.13 | 95 | 1007.6 |
| 20260509110058 | 10 | 236 | 6.4 | 20.9 | 0.05 | 0.18 | 0.13 | 95 | 1007.5 |
| 20260509105551 | 10 | 216 | 8.0 | 20.9 | 0.03 | 0.15 | 0.10 | 94 | 1007.5 |
| 20260509105049 | 10 | 204 | 9.7 | 19.3 | 0.03 | 0.15 | 0.10 | 94 | 1007.4 |